| time (UTC) | temp F | wind direction | speed MPH | gust MPH | rain 1hr in | rain 24hr in | rain mn in | humidity % | barometer mb |
| 20260503194644 | 61 | 0.0 | 0.0 | 0.00 | 0.00 | 0.00 | 71 | 1076.7 | |
| 20260503192639 | 61 | 0.0 | 0.0 | 0.00 | 0.00 | 0.00 | 71 | 1076.5 | |
| 20260503190634 | 62 | 0.0 | 0.0 | 0.00 | 0.00 | 0.00 | 71 | 1076.3 | |
| 20260503184628 | 62 | 0.0 | 0.0 | 0.00 | 0.00 | 0.00 | 70 | 1076.1 | |
| 20260503184422 | 62 | 0.0 | 0.0 | 0.00 | 0.00 | 0.00 | 70 | 1076.1 | |
| 20260503182417 | 63 | 0.0 | 0.0 | 0.00 | 0.00 | 0.00 | 69 | 1076.1 | |
| 20260503180412 | 63 | 0.0 | 0.0 | 0.00 | 0.00 | 0.00 | 66 | 1076.1 | |
| 20260503174407 | 64 | 0.0 | 0.0 | 0.00 | 0.00 | 0.00 | 65 | 1076.1 | |
| 20260503172403 | 64 | 0.0 | 0.0 | 0.00 | 0.00 | 0.00 | 62 | 1076.2 | |
| 20260503170357 | 65 | 0.0 | 0.0 | 0.00 | 0.00 | 0.00 | 61 | 1076.2 | |
| 20260503150327 | 70 | 0.0 | 0.0 | 0.00 | 0.00 | 0.00 | 53 | 1076.6 | |
| 20260503140313 | 67 | 0.0 | 0.0 | 0.00 | 0.00 | 0.00 | 57 | 1077.5 | |
| 20260503130258 | 67 | 0.0 | 0.0 | 0.00 | 0.00 | 0.00 | 57 | 1078.2 | |
| 20260503110228 | 69 | 0.0 | 0.0 | 0.00 | 0.00 | 0.00 | 56 | 1078.5 | |
| 20260503100214 | 65 | 0.0 | 0.0 | 0.00 | 0.00 | 0.00 | 62 | 1079.2 | |
| 20260503090200 | 66 | 0.0 | 0.0 | 0.00 | 0.00 | 0.00 | 58 | 1078.8 | |
| 20260503080145 | 63 | 0.0 | 0.0 | 0.00 | 0.00 | 0.00 | 55 | 1078.8 | |
| 20260503072133 | 60 | 0.0 | 0.0 | 0.00 | 0.00 | 0.00 | 47 | 1078.5 | |
| 20260503070128 | 58 | 0.0 | 0.0 | 0.00 | 0.00 | 0.00 | 51 | 1078.6 | |
| 20260503060113 | 55 | 0.0 | 0.0 | 0.00 | 0.00 | 0.00 | 53 | 1078.6 | |
| 20260503054108 | 54 | 0.0 | 0.0 | 0.00 | 0.00 | 0.00 | 54 | 1078.4 | |
| 20260503052104 | 53 | 0.0 | 0.0 | 0.00 | 0.00 | 0.00 | 54 | 1078.7 | |
| 20260503050059 | 52 | 0.0 | 0.0 | 0.00 | 0.00 | 0.00 | 56 | 1078.7 | |
| 20260503044053 | 51 | 0.0 | 0.0 | 0.00 | 0.00 | 0.00 | 56 | 1078.6 | |
| 20260503042049 | 52 | 0.0 | 0.0 | 0.00 | 0.00 | 0.00 | 51 | 1078.4 | |
| 20260503040045 | 52 | 0.0 | 0.0 | 0.00 | 0.00 | 0.00 | 51 | 1078.5 | |
| 20260503034040 | 51 | 0.0 | 0.0 | 0.00 | 0.00 | 0.00 | 53 | 1078.5 | |
| 20260503032035 | 51 | 0.0 | 0.0 | 0.00 | 0.00 | 0.00 | 55 | 1078.6 | |
| 20260503030030 | 52 | 0.0 | 0.0 | 0.00 | 0.00 | 0.00 | 54 | 1078.6 | |
| 20260503024025 | 52 | 0.0 | 0.0 | 0.00 | 0.00 | 0.00 | 51 | 1078.7 | |
| 20260503022020 | 53 | 0.0 | 0.0 | 0.00 | 0.00 | 0.00 | 48 | 1078.6 | |
| 20260503020017 | 52 | 0.0 | 0.0 | 0.00 | 0.00 | 0.00 | 50 | 1078.7 | |
| 20260503014011 | 51 | 0.0 | 0.0 | 0.00 | 0.00 | 0.00 | 55 | 1079.0 | |
| 20260503012007 | 52 | 0.0 | 0.0 | 0.00 | 0.00 | 0.00 | 52 | 1079.0 | |
| 20260503010002 | 53 | 0.0 | 0.0 | 0.00 | 0.00 | 0.00 | 50 | 1079.1 | |
| 20260503003957 | 52 | 0.0 | 0.0 | 0.00 | 0.00 | 0.00 | 54 | 1079.3 | |
| 20260503001952 | 53 | 0.0 | 0.0 | 0.00 | 0.00 | 0.00 | 54 | 1079.3 | |
| 20260502235948 | 54 | 0.0 | 0.0 | 0.00 | 0.00 | 0.00 | 52 | 1079.3 | |
| 20260502233944 | 52 | 0.0 | 0.0 | 0.00 | 0.00 | 0.00 | 57 | 1079.7 | |
| 20260502231939 | 53 | 0.0 | 0.0 | 0.00 | 0.00 | 0.00 | 57 | 1079.9 | |
| 20260502225934 | 53 | 0.0 | 0.0 | 0.00 | 0.00 | 0.00 | 58 | 1080.0 | |
| 20260502223929 | 53 | 0.0 | 0.0 | 0.00 | 0.00 | 0.00 | 59 | 1080.1 | |
| 20260502221924 | 54 | 0.0 | 0.0 | 0.00 | 0.00 | 0.00 | 57 | 1080.2 | |
| 20260502215920 | 55 | 0.0 | 0.0 | 0.00 | 0.00 | 0.00 | 56 | 1080.2 | |
| 20260502213915 | 55 | 0.0 | 0.0 | 0.00 | 0.00 | 0.00 | 56 | 1080.3 | |
| 20260502211910 | 56 | 0.0 | 0.0 | 0.00 | 0.00 | 0.00 | 55 | 1080.4 | |
| 20260502203901 | 57 | 0.0 | 0.0 | 0.00 | 0.00 | 0.00 | 53 | 1080.5 | |
| 20260502201856 | 56 | 0.0 | 0.0 | 0.00 | 0.00 | 0.00 | 54 | 1080.4 | |
| 20260502195851 | 57 | 0.0 | 0.0 | 0.00 | 0.00 | 0.00 | 52 | 1080.5 |